When you browse on this site, cookies collect data to enhance your experience and personalize the content and advertising you see.
Visit our Privacy Policy to learn more. By continuing to use the site, you agree to this use of cookies and data.
  • în România
  • Lista ţărilor
  • Pe 7 zile
  • Temperatura apei
  • Hartă satelitară
  • Meteo pe hartă
  • Widget-uri
  • user-avatar
    Intrare

    Meteo pe oră la Gulbarga

    Astăzi, 16 Februarie, Sâmbătă

    Timp Temperatura Precipitaţii Vânt Presiune Umiditate
    00:00 +30°C° 0 mm 2 m/s 721 mmHg 26%
    01:00 +29°C° 0 mm 3 m/s 720 mmHg 26%
    02:00 +28°C° 0 mm 3 m/s 720 mmHg 27%
    03:00 +27°C° 0 mm 3 m/s 720 mmHg 27%
    04:00 +27°C° 0 mm 3 m/s 720 mmHg 28%
    05:00 +26°C° 0 mm 3 m/s 721 mmHg 29%
    06:00 +26°C° 0 mm 4 m/s 721 mmHg 27%
    07:00 +27°C° 0 mm 4 m/s 721 mmHg 26%
    08:00 +28°C° 0 mm 5 m/s 722 mmHg 24%
    09:00 +29°C° 0 mm 4 m/s 722 mmHg 22%
    10:00 +32°C° 0 mm 4 m/s 722 mmHg 21%
    11:00 +34°C° 0 mm 3 m/s 722 mmHg 19%
    12:00 +34°C° 0 mm 2 m/s 721 mmHg 18%
    13:00 +35°C° 0 mm 2 m/s 721 mmHg 17%
    14:00 +36°C° 0 mm 2 m/s 720 mmHg 16%
    15:00 +36°C° 0 mm 2 m/s 720 mmHg 15%
    16:00 +36°C° 0 mm 3 m/s 720 mmHg 14%
    17:00 +36°C° 0 mm 3 m/s 719 mmHg 14%
    18:00 +35°C° 0 mm 3 m/s 720 mmHg 14%
    19:00 +34°C° 0 mm 3 m/s 720 mmHg 15%
    20:00 +33°C° 0 mm 3 m/s 721 mmHg 16%
    21:00 +33°C° 0 mm 3 m/s 721 mmHg 16%
    22:00 +31°C° 0 mm 3 m/s 721 mmHg 16%
    23:00 +30°C° 0 mm 3 m/s 721 mmHg 16%

    Mâine, 17 Februarie, Duminică

    Timp Temperatura Precipitaţii Vânt Presiune Umiditate
    00:00 +29°C° 0 mm 3 m/s 721 mmHg 16%
    01:00 +29°C° 0 mm 3 m/s 720 mmHg 17%
    02:00 +28°C° 0 mm 3 m/s 720 mmHg 17%
    03:00 +27°C° 0 mm 3 m/s 720 mmHg 18%
    04:00 +26°C° 0 mm 3 m/s 720 mmHg 19%
    05:00 +25°C° 0 mm 3 m/s 720 mmHg 20%
    06:00 +26°C° 0 mm 4 m/s 721 mmHg 20%
    07:00 +27°C° 0 mm 4 m/s 721 mmHg 21%
    08:00 +27°C° 0 mm 5 m/s 722 mmHg 21%
    09:00 +29°C° 0 mm 5 m/s 722 mmHg 20%
    10:00 +32°C° 0 mm 4 m/s 722 mmHg 19%
    11:00 +34°C° 0 mm 4 m/s 722 mmHg 18%
    12:00 +35°C° 0 mm 3 m/s 721 mmHg 16%
    13:00 +35°C° 0 mm 2 m/s 720 mmHg 15%
    14:00 +35°C° 0 mm 1 m/s 719 mmHg 14%
    15:00 +35°C° 0 mm 1 m/s 719 mmHg 13%
    16:00 +36°C° 0 mm 2 m/s 719 mmHg 13%
    17:00 +37°C° 0 mm 2 m/s 718 mmHg 12%
    18:00 +35°C° 0 mm 2 m/s 719 mmHg 13%
    19:00 +34°C° 0 mm 2 m/s 719 mmHg 14%
    20:00 +32°C° 0 mm 1 m/s 719 mmHg 15%
    21:00 +31°C° 0 mm 2 m/s 719 mmHg 15%
    22:00 +30°C° 0 mm 2 m/s 719 mmHg 16%
    23:00 +30°C° 0 mm 3 m/s 720 mmHg 17%

    Poimâine, 18 Februarie, Luni

    Timp Temperatura Precipitaţii Vânt Presiune Umiditate
    00:00 +29°C° 0 mm 3 m/s 719 mmHg 18%
    01:00 +28°C° 0 mm 3 m/s 719 mmHg 20%
    02:00 +27°C° 0 mm 3 m/s 718 mmHg 21%
    03:00 +26°C° 0 mm 3 m/s 718 mmHg 22%
    04:00 +26°C° 0 mm 2 m/s 718 mmHg 23%
    05:00 +25°C° 0 mm 2 m/s 718 mmHg 24%
    06:00 +26°C° 0 mm 2 m/s 719 mmHg 23%
    07:00 +27°C° 0 mm 3 m/s 720 mmHg 21%
    08:00 +28°C° 0 mm 3 m/s 721 mmHg 20%
    09:00 +30°C° 0 mm 3 m/s 721 mmHg 18%
    10:00 +33°C° 0 mm 3 m/s 721 mmHg 16%
    11:00 +35°C° 0 mm 3 m/s 721 mmHg 14%
    12:00 +35°C° 0 mm 3 m/s 720 mmHg 13%
    13:00 +36°C° 0 mm 2 m/s 719 mmHg 12%
    14:00 +36°C° 0 mm 1 m/s 718 mmHg 11%
    15:00 +36°C° 0 mm 1 m/s 718 mmHg 11%
    16:00 +36°C° 0 mm 1 m/s 718 mmHg 11%
    17:00 +36°C° 0 mm 1 m/s 717 mmHg 10%
    18:00 +35°C° 0 mm 1 m/s 718 mmHg 11%
    19:00 +34°C° 0 mm 1 m/s 718 mmHg 12%
    20:00 +32°C° 0 mm 2 m/s 719 mmHg 13%
    21:00 +32°C° 0 mm 2 m/s 719 mmHg 14%
    22:00 +31°C° 0 mm 3 m/s 719 mmHg 15%
    23:00 +30°C° 0 mm 3 m/s 719 mmHg 15%

    19 Februarie, Marţi

    Timp Temperatura Precipitaţii Vânt Presiune Umiditate
    00:00 +29°C° 0 mm 3 m/s 718 mmHg 16%
    01:00 +29°C° 0 mm 3 m/s 718 mmHg 17%
    02:00 +28°C° 0 mm 3 m/s 718 mmHg 18%
    03:00 +28°C° 0 mm 3 m/s 718 mmHg 22%
    04:00 +27°C° 0 mm 3 m/s 718 mmHg 26%
    05:00 +27°C° 0 mm 3 m/s 718 mmHg 30%
    06:00 +28°C° 0 mm 3 m/s 719 mmHg 39%
    07:00 +28°C° 0 mm 4 m/s 719 mmHg 48%
    08:00 +29°C° 0 mm 5 m/s 720 mmHg 57%
    09:00 +32°C° 0 mm 5 m/s 720 mmHg 49%
    10:00 +34°C° 0 mm 5 m/s 721 mmHg 42%
    11:00 +36°C° 0 mm 6 m/s 721 mmHg 35%
    12:00 +37°C° 0 mm 5 m/s 720 mmHg 31%
    13:00 +37°C° 0 mm 4 m/s 719 mmHg 27%
    14:00 +38°C° 0 mm 3 m/s 719 mmHg 23%
    15:00 +38°C° 0 mm 2 m/s 718 mmHg 22%
    16:00 +38°C° 0 mm 2 m/s 718 mmHg 22%
    17:00 +38°C° 0 mm 2 m/s 718 mmHg 22%
    18:00 +37°C° 0 mm 2 m/s 719 mmHg 22%
    19:00 +37°C° 0 mm 3 m/s 720 mmHg 23%
    20:00 +37°C° 0 mm 3 m/s 720 mmHg 24%
    21:00 +36°C° 0 mm 4 m/s 720 mmHg 26%
    22:00 +35°C° 0 mm 4 m/s 721 mmHg 28%
    23:00 +34°C° 0 mm 5 m/s 721 mmHg 30%

    20 Februarie, Miercuri

    Timp Temperatura Precipitaţii Vânt Presiune Umiditate
    00:00 +33°C° 0 mm 5 m/s 720 mmHg 35%
    01:00 +32°C° 0 mm 5 m/s 720 mmHg 40%
    02:00 +30°C° 0 mm 5 m/s 719 mmHg 46%
    03:00 +30°C° 0 mm 4 m/s 719 mmHg 49%
    04:00 +29°C° 0 mm 4 m/s 720 mmHg 53%
    05:00 +28°C° 0 mm 4 m/s 720 mmHg 56%
    06:00 +29°C° 0 mm 4 m/s 721 mmHg 54%
    07:00 +29°C° 0 mm 4 m/s 721 mmHg 51%
    08:00 +29°C° 0 mm 4 m/s 722 mmHg 49%
    09:00 +32°C° 0 mm 5 m/s 722 mmHg 44%
    10:00 +33°C° 0 mm 5 m/s 722 mmHg 39%
    11:00 +35°C° 0 mm 5 m/s 722 mmHg 33%
    12:00 +36°C° 0 mm 5 m/s 721 mmHg 31%
    13:00 +37°C° 0 mm 5 m/s 721 mmHg 28%
    14:00 +39°C° 0 mm 5 m/s 720 mmHg 25%
    15:00 +38°C° 0 mm 4 m/s 720 mmHg 24%
    16:00 +38°C° 0 mm 4 m/s 720 mmHg 24%
    17:00 +38°C° 0 mm 4 m/s 720 mmHg 23%
    18:00 +37°C° 0 mm 4 m/s 720 mmHg 24%
    19:00 +36°C° 0 mm 4 m/s 721 mmHg 25%
    20:00 +36°C° 0 mm 4 m/s 722 mmHg 27%
    21:00 +35°C° 0 mm 5 m/s 722 mmHg 30%
    22:00 +34°C° 0 mm 6 m/s 722 mmHg 33%
    23:00 +33°C° 0 mm 7 m/s 722 mmHg 37%

    21 Februarie, Joi

    Timp Temperatura Precipitaţii Vânt Presiune Umiditate
    00:00 +32°C° 0 mm 7 m/s 722 mmHg 38%
    01:00 +30°C° 0 mm 6 m/s 721 mmHg 39%
    02:00 +29°C° 0 mm 6 m/s 721 mmHg 41%
    03:00 +29°C° 0 mm 5 m/s 721 mmHg 41%
    04:00 +28°C° 0 mm 5 m/s 721 mmHg 40%
    05:00 +27°C° 0 mm 4 m/s 721 mmHg 40%
    06:00 +28°C° 0 mm 3 m/s 722 mmHg 39%
    07:00 +28°C° 0 mm 3 m/s 723 mmHg 37%
    08:00 +29°C° 0 mm 2 m/s 723 mmHg 36%
    09:00 +31°C° 0 mm 3 m/s 723 mmHg 30%
    10:00 +33°C° 0 mm 4 m/s 724 mmHg 25%
    11:00 +35°C° 0 mm 4 m/s 724 mmHg 20%
    12:00 +36°C° 0 mm 4 m/s 723 mmHg 19%
    13:00 +37°C° 0 mm 4 m/s 722 mmHg 18%
    14:00 +38°C° 0 mm 4 m/s 721 mmHg 17%
    15:00 +38°C° 0 mm 3 m/s 721 mmHg 17%
    16:00 +38°C° 0 mm 3 m/s 721 mmHg 17%
    17:00 +38°C° 0 mm 3 m/s 721 mmHg 17%
    18:00 +37°C° 0 mm 3 m/s 721 mmHg 18%
    19:00 +36°C° 0 mm 3 m/s 722 mmHg 19%
    20:00 +35°C° 0 mm 3 m/s 722 mmHg 20%
    21:00 +34°C° 0 mm 3 m/s 722 mmHg 22%
    22:00 +33°C° 0 mm 4 m/s 722 mmHg 24%
    23:00 +32°C° 0 mm 4 m/s 722 mmHg 27%
    Arată mai mult